Flag for Poland Weather past 2 weeks in Lódz, Poland

Now
66 °F

Sprinkles. Overcast.


Feels Like: 66 °F
Forecast: 62 / 75 °F
Wind: 5 mph from Southeast

Location: Lodz

Current Time: Jul 24, 2014 at 6:49:46 PM

Latest Report: Jul 24, 2014 at 6:00 PM


Visibility: 6 mi

Pressure: 29.95 "Hg

Humidity: 90%

Dew point: 63 °F

Location of LódzLocation

Historic Weather in Lódz — Graph

°F

Lódz temperature yesterday

Maximum temperature yesterday: 74 °F (at 5:00 PM)
Minimum temperature yesterday: 61 °F (at 9:00 PM)
Average temperature yesterday: 66 °F

Past Weeks' High & Low Weather Summary

 TemperatureHumidityPressure
High88 °F (Jul 20, 4:00 PM)97% (Jul 13, 2:00 AM)30.16 "Hg (Jul 13, 2:00 AM)
Low52 °F (Jul 13, 2:00 AM)27% (Jul 16, 6:00 PM)29.65 "Hg (Jul 9, 5:00 PM)
Average69 °F69%29.94 "Hg
* Reported Jul 9 5:00 PM — Jul 24 5:00 PM, Lódz, Weather by CustomWeather, © 2014

Note: Actual official high and low records may vary slightly from our data, if they occured in-between our weather recording intervals... More about our weather records

Advertising

Lódz weather history for previous 24 hours

 ConditionsComfort  
Time TempWeatherWind HumidityBarometerVisibility
5:00 PM
Jul 24
67 °FSprinkles. Overcast.3 mph88%29.93 "Hg6 mi
4:00 PM68 °FSprinkles. Overcast.5 mph81%29.93 "Hg6 mi
3:00 PM67 °FLight rain. Overcast.5 mph82%29.93 "Hg7 mi
2:00 PM65 °FLight rain. Overcast.5 mph88%29.94 "Hg9 mi
1:00 PM66 °FLight rain. Overcast.6 mph88%29.94 "Hg8 mi
12:00 PM65 °FLight rain. Overcast.6 mph89%29.93 "Hg7 mi
11:00 AM63 °FLight rain. Overcast.6 mph92%29.94 "Hg6 mi
10:00 AM62 °FLight rain. Overcast.7 mph91%29.93 "Hg7 mi
9:00 AM61 °FLight rain. Overcast.6 mph94%29.93 "Hg6 mi
8:00 AM62 °FLight rain. Overcast.7 mph91%29.93 "Hg6 mi
7:00 AM62 °FLight rain. Low clouds.6 mph93%29.93 "Hg6 mi
6:00 AM61 °FLight rain. Low clouds.6 mph94%29.94 "Hg6 mi
5:00 AM61 °FRain. Overcast.6 mph94%29.95 "Hg6 mi
4:00 AM61 °FLight rain. Overcast.5 mph92%29.96 "Hg6 mi
3:00 AM62 °FLight rain. Overcast.5 mph88%29.97 "Hg11 mi
2:00 AM63 °FLight rain. Overcast.6 mph83%29.98 "Hg11 mi
1:00 AM62 °FLight rain. Overcast.5 mph84%29.98 "Hg9 mi
12:00 AM62 °FOvercast.5 mph85%29.99 "Hg11 mi
11:00 PM
Jul 23
63 °FOvercast.5 mph84%29.99 "Hg12 mi
10:00 PM63 °FPassing clouds.6 mph81%30.00 "Hg13 mi
9:00 PM61 °FSprinkles. Overcast.3 mph91%30.01 "Hg9 mi
8:00 PM62 °FLight rain. Overcast.5 mph91%30.02 "Hg6 mi
7:00 PM65 °FThundershowers. Overcast.8 mph75%30.02 "Hg11 mi
6:00 PM74 °FOvercast.8 mph56%29.96 "Hg9 mi
Weather by CustomWeather, © 2014

See weather overviewHow to use our weather pages